Regional Weather Roundup
Issued by NWS Goodland, KS

Home | Current Version | Previous Version | Text Only | Print | Product List | Glossary On
Versions: 1 2 3 4 5 6 7 8 9 10 11 12 13 14 15 16 17 18 19 20 21 22 23 24 25 26 27 28 29 30 31 32 33 34 35 36 37 38 39 40 41 42 43 44 45 46 47 48 49 50
000
ASUS43 KGLD 201908
RWRGLD

GOODLAND FORECAST AREA HOURLY WEATHER ROUNDUP
NATIONAL WEATHER SERVICE GOODLAND KS
100 PM MDT SUN APR 20 2014

...OFFICIAL OBSERVATIONS...

CITY           SKY/WX    TMP DP  RH WIND       PRES   REMARKS
GOODLAND KS    PTSUNNY   66  51  58 CALM      29.99F
HILL CITY KS   CLOUDY    77  51  40 S13       29.96F
IMPERIAL NEB   PTSUNNY   70  49  47 N6        29.99F
MCCOOK NEB     MOSUNNY   75  53  46 SE8       29.96F
AKRON CO       PTSUNNY   68  39  34 N12       30.03F
BURLINGTON CO  PTSUNNY   68  47  46 E10       30.00F
LIMON CO       CLOUDY    69  40  34 N17       30.05F
$$

...UNOFFICIAL OBSERVATIONS...

CITY           SKY/WX    TMP DP  RH WIND       PRES   REMARKS
COLBY KS       PTSUNNY   75  52  43 S12G21    29.97F
LENORA KS        N/A     72  32  23 S15         N/A
LEOTI KS         N/A     74  32  21 S16         N/A
NORTON KS      PTSUNNY   72  50  46 SE10G18   29.96F
OBERLIN KS     FAIR      73  50  43 S13       29.96F
SHARON SPRINGS   N/A     71  52  51 S13         N/A
ST FRANCIS KS  PTSUNNY   70  45  40 NE6       29.98F
WAKEENEY KS      N/A     77  45  32 MISG        N/A
KIT CARSON CO    N/A     70  48  44 MISG        N/A
WRAY CO        CLOUDY    63  52  67 N5        30.00
$$



USA.gov is the U.S. government's official web portal to all federal, state and local government web resources and services.